Latest Coastal Weather Observations for Spring Bay

IDT60701

Issued at 1:32 am EST Monday 30 May 2016 (issued every 10 minutes, with the page automatically refreshed every 10 minutes)

About coastal observations | Map of coastal stations | Coastal observations for TAS | Marine services | Other Formats
Station Details ID: 092133 Name: SPRING BAY NTC AWS Lat: -42.55 Lon: 147.93 Height: 0.0 m
Data from the previous 72 hours. | See also: Recent months for locations in Tasmania
Date/Time
EST
Temp

°C
Wind Pressure Rain
since 9am
mm
Weather Cloud Vis
km
Sea
Height
m
Swell
Dir
 
Speed
knots
Gust
knots
hPa Trend Height
m
Period
s
Dir
30/01:30am 10.4 - - - 1022.7 - - - - - - - - -
30/01:00am 10.2 - - - 1022.4 - - - - - - - - -
30/12:30am 10.3 - - - 1022.2 - - - - - - - - -
30/12:00am 10.2 - - - 1022.1 - - - - - - - - -
 
Date/Time
EST
Temp

°C
Wind Pressure Rain
since 9am
mm
Weather Cloud Vis
km
Sea
Height
m
Swell
Dir
 
Speed
knots
Gust
knots
hPa Trend Height
m
Period
s
Dir
29/11:30pm 10.2 - - - 1022.0 - - - - - - - - -
29/11:00pm 10.6 - - - 1021.7 - - - - - - - - -
29/10:30pm 10.1 - - - 1021.6 - - - - - - - - -
29/10:00pm 10.2 - - - 1021.3 - - - - - - - - -
29/09:30pm 10.4 - - - 1021.0 - - - - - - - - -
29/09:00pm 10.4 - - - 1020.8 - - - - - - - - -
29/08:30pm 10.5 - - - 1020.5 - - - - - - - - -
29/08:00pm 10.8 - - - 1020.3 - - - - - - - - -
29/07:30pm 10.6 - - - 1019.8 - - - - - - - - -
29/07:00pm 10.7 - - - 1019.4 - - - - - - - - -
29/06:30pm 11.0 - - - 1018.8 - - - - - - - - -
29/06:00pm 11.1 - - - 1018.5 - - - - - - - - -
29/05:30pm 11.2 - - - 1018.1 - - - - - - - - -
29/05:00pm 11.4 - - - 1017.7 - - - - - - - - -
29/04:30pm 11.8 - - - 1017.3 - - - - - - - - -
29/04:00pm 12.1 - - - 1017.0 - - - - - - - - -
29/03:30pm 12.3 - - - 1016.7 - - - - - - - - -
29/03:00pm 12.3 - - - 1016.1 - - - - - - - - -
29/02:30pm 12.6 - - - 1015.7 - - - - - - - - -
29/02:00pm 12.4 - - - 1015.5 - - - - - - - - -
29/01:30pm 12.1 - - - 1015.1 - - - - - - - - -
29/01:00pm 12.4 - - - 1015.0 - - - - - - - - -
29/12:30pm 12.1 - - - 1014.9 - - - - - - - - -
29/12:00pm 12.3 - - - 1014.8 - - - - - - - - -
29/11:30am 12.2 - - - 1014.7 - - - - - - - - -
29/11:00am 11.3 - - - 1014.8 - - - - - - - - -
29/10:30am 11.4 - - - 1014.6 - - - - - - - - -
29/10:00am 11.0 - - - 1014.4 - - - - - - - - -
29/09:30am 10.9 - - - 1014.0 - - - - - - - - -
29/09:00am 10.4 - - - 1013.6 - - - - - - - - -
29/08:30am 9.8 - - - 1013.2 - - - - - - - - -
29/08:00am 9.7 - - - 1012.9 - - - - - - - - -
29/07:30am 9.9 - - - 1012.7 - - - - - - - - -
29/07:00am 10.1 - - - 1012.1 - - - - - - - - -
29/06:30am 10.3 - - - 1011.8 - - - - - - - - -
29/06:00am 9.6 - - - 1011.6 - - - - - - - - -
29/05:30am 9.5 - - - 1011.3 - - - - - - - - -
29/05:00am 9.7 - - - 1010.9 - - - - - - - - -
29/04:30am 9.6 - - - 1010.7 - - - - - - - - -
29/04:00am 9.5 - - - 1010.7 - - - - - - - - -
29/03:30am 9.3 - - - 1010.4 - - - - - - - - -
29/03:00am 9.0 - - - 1010.4 - - - - - - - - -
29/02:30am 8.9 - - - 1010.3 - - - - - - - - -
29/02:00am 9.5 - - - 1010.1 - - - - - - - - -
29/01:30am 9.0 - - - 1010.0 - - - - - - - - -
29/01:00am 8.6 - - - 1009.8 - - - - - - - - -
29/12:30am 8.8 - - - 1009.8 - - - - - - - - -
29/12:00am 8.4 - - - 1009.8 - - - - - - - - -
 
Date/Time
EST
Temp

°C
Wind Pressure Rain
since 9am
mm
Weather Cloud Vis
km
Sea
Height
m
Swell
Dir
 
Speed
knots
Gust
knots
hPa Trend Height
m
Period
s
Dir
28/11:30pm 8.4 - - - 1009.9 - - - - - - - - -
28/11:00pm 8.6 - - - 1009.8 - - - - - - - - -
28/10:30pm 8.8 - - - 1009.7 - - - - - - - - -
28/10:00pm 8.4 - - - 1009.7 - - - - - - - - -
28/09:30pm 8.4 - - - 1009.6 - - - - - - - - -
28/09:00pm 8.8 - - - 1009.6 - - - - - - - - -
28/08:30pm 9.5 - - - 1009.4 - - - - - - - - -
28/08:00pm 7.9 - - - 1009.2 - - - - - - - - -
28/07:30pm 7.8 - - - 1009.0 - - - - - - - - -
28/07:00pm 8.1 - - - 1008.9 - - - - - - - - -
28/06:30pm 9.0 - - - 1008.5 - - - - - - - - -
28/06:00pm 9.4 - - - 1008.2 - - - - - - - - -
28/05:30pm 9.7 - - - 1008.0 - - - - - - - - -
28/05:00pm 11.0 - - - 1007.5 - - - - - - - - -
28/04:30pm 11.6 - - - 1007.2 - - - - - - - - -
28/04:00pm 12.2 - - - 1007.1 - - - - - - - - -
28/03:30pm 12.9 - - - 1006.9 - - - - - - - - -
28/03:00pm 13.9 - - - 1006.6 - - - - - - - - -
28/02:30pm 13.0 - - - 1006.4 - - - - - - - - -
28/02:00pm 13.3 - - - 1006.2 - - - - - - - - -
28/01:30pm 13.3 - - - 1006.2 - - - - - - - - -
28/01:00pm 12.8 - - - 1006.2 - - - - - - - - -
28/12:30pm 12.3 - - - 1006.5 - - - - - - - - -
28/12:00pm 12.1 - - - 1006.6 - - - - - - - - -
28/11:30am 11.6 - - - 1007.0 - - - - - - - - -
28/11:00am 11.0 - - - 1007.3 - - - - - - - - -
28/10:30am 9.7 - - - 1007.2 - - - - - - - - -
28/10:00am 9.3 - - - 1007.3 - - - - - - - - -
28/09:30am 8.8 - - - 1007.3 - - - - - - - - -
28/09:00am 7.9 - - - 1007.4 - - - - - - - - -
28/08:30am 7.7 - - - 1007.5 - - - - - - - - -
28/08:00am 7.6 - - - 1007.6 - - - - - - - - -
28/07:30am 7.3 - - - 1007.4 - - - - - - - - -
28/07:00am 7.3 - - - 1007.3 - - - - - - - - -
28/06:30am 7.1 - - - 1007.2 - - - - - - - - -
28/06:00am 7.4 - - - 1007.0 - - - - - - - - -
28/05:30am 7.3 - - - 1006.9 - - - - - - - - -
28/05:00am 7.8 - - - 1006.9 - - - - - - - - -
28/04:30am 7.6 - - - 1006.8 - - - - - - - - -
28/04:00am 7.9 - - - 1006.8 - - - - - - - - -
28/03:30am 8.2 - - - 1006.6 - - - - - - - - -
28/03:00am 8.5 - - - 1006.6 - - - - - - - - -
28/02:30am 8.8 - - - 1006.7 - - - - - - - - -
28/02:00am 8.7 - - - 1006.8 - - - - - - - - -
28/01:30am 8.9 - - - 1006.9 - - - - - - - - -
28/01:00am 9.3 - - - 1007.0 - - - - - - - - -
28/12:30am 9.5 - - - 1006.9 - - - - - - - - -
28/12:00am 10.0 - - - 1006.9 - - - - - - - - -
 
Date/Time
EST
Temp

°C
Wind Pressure Rain
since 9am
mm
Weather Cloud Vis
km
Sea
Height
m
Swell
Dir
 
Speed
knots
Gust
knots
hPa Trend Height
m
Period
s
Dir
27/11:30pm 9.9 - - - 1007.1 - - - - - - - - -
27/11:00pm 10.3 - - - 1007.2 - - - - - - - - -
27/10:30pm 10.4 - - - 1007.2 - - - - - - - - -
27/10:00pm 10.4 - - - 1007.2 - - - - - - - - -
27/09:30pm 10.4 - - - 1007.1 - - - - - - - - -
27/09:00pm 10.5 - - - 1006.9 - - - - - - - - -
27/08:30pm 10.5 - - - 1006.8 - - - - - - - - -
27/08:00pm 10.4 - - - 1006.7 - - - - - - - - -
27/07:30pm 10.2 - - - 1006.6 - - - - - - - - -
27/07:00pm 10.5 - - - 1006.4 - - - - - - - - -
27/06:30pm 10.7 - - - 1006.1 - - - - - - - - -
27/06:00pm 10.8 - - - 1005.9 - - - - - - - - -
27/05:30pm 10.7 - - - 1005.5 - - - - - - - - -
27/05:00pm 11.0 - - - 1005.2 - - - - - - - - -
27/04:30pm 11.4 - - - 1005.0 - - - - - - - - -
27/04:00pm 11.5 - - - 1004.6 - - - - - - - - -
27/03:30pm 11.3 - - - 1004.3 - - - - - - - - -
27/03:00pm 11.3 - - - 1004.0 - - - - - - - - -
27/02:30pm 11.5 - - - 1003.7 - - - - - - - - -
27/02:00pm 11.2 - - - 1003.6 - - - - - - - - -
27/01:30pm 11.2 - - - 1003.6 - - - - - - - - -
27/01:00pm 11.0 - - - 1003.6 - - - - - - - - -
27/12:30pm 10.8 - - - 1003.6 - - - - - - - - -
27/12:00pm 10.8 - - - 1003.7 - - - - - - - - -

Other Formats:

Comma delimited format used in spreadsheet applications
http://www.bom.gov.au/fwo/IDT60701/IDT60701.95987.axf

JavaScript Object Notation format (JSON) in row-major order
http://www.bom.gov.au/fwo/IDT60701/IDT60701.95987.json